Location: Unspecified
(0.0000°N, 0.0000°E)
Time: 01:30:08
(UTC+00:00)

Vanguard 1 - Pass Details

Date: 28 November 2019
Orbit: 652 x 3832 km, 34.3° (Epoch: 10 December)

Event Time Altitude Azimuth Distance (km) Brightness Sun altitude
Rises 08:14:38 0° 279° (W) 7,601 14.1 33.8°
Reaches altitude 10° 08:24:05 10° 299° (WNW) 5,973 13.6 36.0°
Maximum altitude 08:32:31 15° 328° (NNW) 4,804 13.3 37.8°
Drops below altitude 10° 08:39:09 10° 359° (N) 4,499 13.3 39.3°
Sets 08:44:24 0° 23° (NNE) 4,864 13.6 40.5°
